This is the latest recevied weather packets stored in our database for station/object W4SPD. If no packets are shown the sender has not sent any weather packets the latest 10 day(s).
| Time | Temp. | Humidity | Pressure | Rain* | Wind** | Luminosity | Snow |
|---|---|---|---|---|---|---|---|
| 1778090440 | 25.56° C | 71% | - | 0 mm | - | - | - |
| 1778090137 | 25.56° C | 71% | - | 0 mm | - | - | - |
| 1778089833 | 25.56° C | 70% | - | 0 mm | - | - | - |
| 1778089532 | 25.56° C | 72% | - | 0 mm | - | - | - |
| 1778089227 | 25.56° C | 70% | - | 0 mm | - | - | - |
| 1778088926 | 25.56° C | 69% | - | 0 mm | - | - | - |
| 1778088622 | 25° C | 72% | - | 0 mm | - | - | - |
| 1778088320 | 25° C | 72% | - | 0 mm | - | - | - |
| 1778088016 | 25° C | 70% | - | 0 mm | - | - | - |
| 1778087713 | 25° C | 73% | - | 0 mm | - | - | - |
| 1778087411 | 25° C | 71% | - | 0 mm | - | - | - |
| 1778087108 | 25° C | 70% | - | 0 mm | - | - | - |
| 1778086806 | 25.56° C | 70% | - | 0 mm | - | - | - |
| 1778086504 | 25° C | 71% | - | 0 mm | - | - | - |
| 1778086200 | 25° C | 72% | - | 0 mm | - | - | - |
| 1778085896 | 25° C | 72% | - | 0 mm | - | - | - |
| 1778085594 | 24.44° C | 72% | - | 0 mm | - | - | - |
| 1778085289 | 23.89° C | 73% | - | 0 mm | - | - | - |
| 1778084984 | 23.89° C | 73% | - | 0 mm | - | - | - |
| 1778084682 | 23.33° C | 74% | - | 0 mm | - | - | - |
| 1778084379 | 23.33° C | 75% | - | 0 mm | - | - | - |
| 1778084078 | 23.33° C | 77% | - | 0 mm | - | - | - |
| 1778083774 | 23.33° C | 75% | - | 0 mm | - | - | - |
| 1778083472 | 22.78° C | 79% | - | 0 mm | - | - | - |
| 1778083169 | 22.22° C | 79% | - | 0 mm | - | - | - |
* Rain latest hour (hover to see other rain measurements)
** Current wind speed in m/s (hover to see current wind gust speed)